Regional Weather Roundup
Issued by NWS

Home | Current Version | Previous Version | Graphics & Text | Print | Product List | Glossary On
Versions: 1 2 3 4 5 6 7 8 9 10 11 12 13 14 15 16 17 18 19 20 21 22 23 24 25 26 27 28 29 30 31 32 33 34 35 36 37 38 39 40 41 42 43 44 45 46 47 48 49 50
000
ASUS43 KDTX 192210
RWRMI
MICHIGAN HOURLY REGIONAL WEATHER ROUNDUP
NATIONAL WEATHER SERVICE DETROIT/PONTIAC MI
500 PM EST MON FEB 19 2018

NOTE: "FAIR" INDICATES FEW OR NO CLOUDS BELOW 12,000 FEET WITH NO
SIGNIFICANT WEATHER AND/OR OBSTRUCTION TO VISIBILITY.

MIZ047>049-052>055-059>063-066>070-074>076-081>083-192300-
SOUTHEAST LOWER MICHIGAN

CITY           SKY/WX    TMP DP  RH WIND       PRES   REMARKS
ADRIAN         LGT RAIN  51  51 100 SW15      29.92R FOG
ALMA           FOG       38  38 100 NE5       29.87S VSB 3/4 WCI  35
ANN ARBOR      LGT RAIN  47  47 100 S6        29.90R VSB 1/4
BAD AXE        CLOUDY    37  36  98 E5        29.92F FOG     WCI  33
CARO           LGT RAIN  40  39  99 E5        29.89F VSB 1
DETROIT CITY   LGT RAIN  52  50  93 SW12      29.91S
DETROIT        CLOUDY    51  50  96 S15G25    29.91R
FLINT          FOG       39  39 100 E3        29.89F VSB 3/4
GROSSE ILE     LGT RAIN  45  45  99 S10       29.91S VSB<1/4
HILLSDALE      DRIZZLE   52  52 100 S13       29.89R
HOWELL         DRIZZLE   48  47  99 S7        29.87S

CITY           SKY/WX    TMP DP  RH WIND       PRES   REMARKS
JACKSON        CLOUDY    54  54 100 S13G23    29.87R FOG
LAMBERTVILLE   LGT RAIN  56  56  97 SW12G20   29.92R
LANSING        LGT RAIN  40  40 100 NE7       29.86S VSB 1/2
LAPEER         DRIZZLE   38  38  99 CALM      29.91S
MASON          DRZL/FOG  50  47  89 S3        29.86S VSB 1/2
MONROE         CLOUDY    57  55  93 S15G21    29.91R
MT. CLEMENS    LGT RAIN  39  39 100 CALM      29.89F FOG
PONTIAC        DRZL/FOG  42  42 100 SE3       29.89S VSB 1/8
PORT HOPE        N/A     34  33  96 SE8       29.92F WCI  27
PORT HURON     DRZL/FOG  37  37 100 CALM      29.91F VSB 1/4
TRI CITIES     FOG       39  38  96 E7        29.90S VSB 1/2 WCI  34
MIDLAND        FOG       39  39  98 NE5       29.89S VSB 1
TROY           RAIN      47  46  97 S3        29.92S
SAGINAW HB     FOG       37  37 100 E6        29.89F VSB 1   WCI  33
$$
MIZ043>046-050>051-056>058-064>065-071>073-077>080-192300-
SOUTHWEST LOWER MICHIGAN

CITY           SKY/WX    TMP DP  RH WIND       PRES   REMARKS
BATTLE CREEK   LGT RAIN  50  50 100 SW15      29.85R VSB 3/4
BENTON HARBOR  CLOUDY    55  52  89 S13G22    29.83R
BIG RAPIDS     LGT SNOW  37  34  90 E5        29.87R VSB 1   WCI  33
COLDWATER      LGT RAIN  54  54 100 SW12G18   29.88S
FREMONT        DRZL/FOG  39  37  92 E5        29.85R VSB 1
HOLLAND        LGT RAIN  43  41  93 E6        29.82S FOG
GRAND RAPIDS   LGT RAIN  41  40  96 E7        29.84S FOG
IONIA          HVY RAIN  39  39 100 E8        29.85S WCI  34
KALAMAZOO      LGT RAIN  50  48  93 S15       29.85R VSB 1
LUDINGTON      RAIN      39  39 100 E7        29.84F WCI  34
MARSHALL       DRIZZLE   52  52  98 S12       29.86R
MOUNT PLEASANT FOG       39  38  95 NE6       29.87F VSB 1
MUSKEGON       HVY RAIN  41  39  93 NE6       29.84R VSB 3/4
SOUTH HAVEN    CLOUDY    56  54  93 SW13G20   29.82R
$$
MIZ016>042-192300-
NORTHERN LOWER MICHIGAN

CITY           SKY/WX    TMP DP  RH WIND       PRES   REMARKS
ALPENA         LGT RAIN  34  32  92 NE8       29.97S FOG     WCI  27
BEAVER ISLAND  CLOUDY    34  31  88 NE8G17    29.95R FOG     WCI  27
BELLAIRE       CLOUDY    38  36  92 CALM      29.92R
CADILLAC       LGT RAIN  36  35  99 E8        29.86R WCI  29
CHARLEVOIX     LGT RAIN  38  31  78 E6        29.95R WCI  33
FRANKFORT      RAIN      38  37  93 E7        29.88S WCI  33
GAYLORD        CLOUDY    35  33  92 E5        29.90S FOG     WCI  31
GRAYLING       FOG       36  34  93 NE8       29.89S VSB 1   WCI  29
HARBOR SPRINGS LGT SNOW  35  31  85 NE12G18   29.94R WCI  27
HOUGHTON LAKE  MIX PCPN  36  35  96 E7        29.88F VSB 1   WCI  30
MANISTEE       RAIN      38  36  92 E8        29.87S FOG     WCI  32
OSCODA         MIX PCPN  36  32  85 E5        29.94S WCI  32
PELLSTON       CLOUDY    36  30  79 E9        29.95R WCI  29
ROGERS CITY    CLOUDY    33  31  92 E6        29.98S FOG     WCI  27
TRAVERSE CITY  LGT RAIN  36  33  89 NE3       29.90S FOG
$$
MIZ007>008-015-192300-
EASTERN UPPER MICHIGAN

CITY           SKY/WX    TMP DP  RH WIND       PRES   REMARKS
KINROSS        LGT RAIN  33  31  92 NE6       29.97S FOG     WCI  28
MACKINAC ISLAN CLOUDY    32  30  92 E10       29.95S FOG     WCI  24
NEWBERRY       CLOUDY    28  28  97 N8        29.96R WCI  20
S. S. MARIE    CLOUDY    37  30  75 NE9       29.97S WCI  30
MUNISING         N/A     24  23  96 N15       30.02R WCI  11
$$
MIZ004>006-011>014-085-192300-
CENTRAL UPPER MICHIGAN

CITY           SKY/WX    TMP DP  RH WIND       PRES   REMARKS
MANISTIQUE     CLOUDY    28  27  94 N12       29.96R WCI  18
ESCANABA       FLURRIES  27  22  81 N13G22    29.97R WCI  16
MENOMINEE      FLURRIES  28  23  81 NE14      29.94R WCI  17
SAWYER-GWINN   LGT SNOW  21  19  93 NE21G28   29.97F WCI   6
$$
MIZ001>003-009>011-084-192300-
WESTERN UPPER MICHIGAN

CITY           SKY/WX    TMP DP  RH WIND       PRES   REMARKS
IRON MOUNTAIN  CLOUDY    23  17  78 N9        29.94R WCI  13
HOUGHTON       LGT SNOW  17   9  70 NE15G22   30.05F WCI   2
COPPER HARBOR    N/A     18  13  80 E20G26    30.12R WCI   2
IRONWOOD       FLURRIES  16  10  79 NE10      30.00S WCI   3
$$

ABBREVIATIONS USED IN REMARKS
   TC - TEMPERATURE IN CELSIUS
  WCI - WIND CHILL INDEX
   HX - HEAT INDEX
  VSB - VISIBILITY





USA.gov is the U.S. government's official web portal to all federal, state and local government web resources and services.